Location: *
(2.5500°S, 65.9667°W)
Time: 14:50:09
(UTC+00:00)

Okean O Rocket - Pass Details

Date: 30 May 2022
Orbit: 623 x 643 km, 98.2° (Epoch: 30 June)

Event Time Altitude Azimuth Distance (km) Brightness Sun altitude
Exits shadow 00:03:48 21° 201° (SSW) 1,393 3.3 -24.7°
Maximum altitude 00:06:10 39° 258° (WSW) 935 2.8 -25.2°
Drops below altitude 10° 00:10:12 10° 327° (NNW) 1,985 4.9 -26.1°
Sets 00:12:29 0° 335° (NNW) 2,887 5.7 -26.7°
